Location: Norton
(51.3000°N, 0.8167°E)
Time: 02:28:39
(UTC+00:00)

Cosmos 1503 Rocket - Pass Details

Date: 03 March 2021
Orbit: 753 x 790 km, 74.0° (Epoch: 13 April)

Event Time Altitude Azimuth Distance (km) Brightness Sun altitude
Rises 18:27:20 0° 336° (NNW) 3,237 7.6 -8.0°
Reaches altitude 10° 18:29:44 10° 339° (NNW) 2,302 6.8 -8.4°
Maximum altitude 18:34:56 68° 62° (ENE) 817 4.0 -9.2°
Drops below altitude 10° 18:40:04 10° 146° (SE) 2,275 6.1 -10.0°
Sets 18:42:26 0° 149° (SSE) 3,195 6.9 -10.4°
